COSMOS 1670 DEB, 44569

Orbit data source: Space-Track

COSMOS 1670 DEB, 44569 is space debris in LEO originally from a launch on Thu, 01 Aug 1985 UTC launched from the Tyuratam Missile And Space Complex (TTMTR). Debris objects in space refer to the collection of defunct objects orbiting the Earth. Examples of debris include non-operational satellites, rocket bodies, and fragments generated from explosions, collisions, or faulty payload assembly.

Loading next visibility...
COSMOS 1670 DEB details
Identifier
44569, 1985-064F
Orbit
LEO
Last TLE update5 days ago
Origin
Flag of CISVMF RF (CIS)
ManufacturerUnknown
MissionSpacecraft
Bus & MotorUnknown
MassUnknown
Launch date (UTC)
1985-08-01 (39 years ago)
Launch vehicleUnknown
Launch site
Tyuratam Missile And Space Complex (TTMTR)
Object type
Payload
Rocket body
Debris
Shape & HBRUnknown
Radar Cross SectionSmall (<0.1 m²)

Expand to show TLE details & history

TLE from 5 days ago
0 COSMOS 1670 DEB
1 44569U 85064F   24332.33982788  .00034721  00000-0  12836-1 0  9991
2 44569  64.9095 183.6455 0049697 224.5940 312.6537 14.31500271 23990
Epoch: 2024-11-27T08:09Z
Definitive object data (Epoch: 2024-11-27T08:09:21.128Z)
Latitude2.79205°
Longitude173.26912°
Altitude764.334 km
Speed7.485 km/s
True Right ascension00h 09m 22s
True Declination2° 46' 31"
Sunlit
Object was in full shadow at TLE epoch
Visualization TLE readout
Latitude26.36437°
Longitude147.10086°
Altitude776.801 km
Speed7.474 km/s
Apparent Right ascension20h 44m 52s
Apparent Declination-5° 15' 22"
Sunlit
Object is in daylight
Visualization observer readout
Local Sidereal Time06:30:42
Azimuth310.04° NW
Elevation-44.057°
Doppler factor1
Orbital elements
Apogee altitude820.91 km
Perigee altitude749.709 km
Semi-major axis7,163.446 km
Eccentricity0.0049697
Inclination64.9095°
RAAN183.6455°
Arg. of periapsis224.594°
True anomaly312.2331°
Mean anomaly312.6537°
Eccentric anomaly312.44358°
Mean motion3.57981 °/min
BSTAR0.012836
Orbital period100.56 mins
Loading maneuver chart data...
Loading historical data...
Loading historical data...
Loading historical data...
Loading historical data...
Loading historical data...
Loading historical data...
Loading historical data...

COSMOS 1670 DEB Visibility forecast

Observer location: undefined°, undefined

Span
Click to sort rows by Start time (UTC) header in descending order
Start Az.
Max El. time (UTC)
Max El. Az.
Max El.
End time (UTC)
End Az.
9 mins2024-12-02 14:53:25.774Z207.711° SW2024-12-02 14:57:25.774Z47.954° ENE44.219°2024-12-02 15:02:25.774Z32.725° NE
5 mins2024-12-02 16:39:25.774Z295.688° NW2024-12-02 16:41:25.774Z321.878° NNW17.328°2024-12-02 16:44:25.774Z357.48° N
4 mins2024-12-02 21:59:25.774Z22.64° NE2024-12-02 22:00:25.774Z35.301° NE15.068°2024-12-02 22:03:25.774Z70.991° E
8 mins2024-12-02 23:41:25.774Z331.355° NNW2024-12-02 23:45:25.774Z116.118° SE44.129°2024-12-02 23:49:25.774Z145.853° SSE
|